Location: Bo?a Wola
(50.4192°N, 19.7966°E)
Time: 12:29:25
(UTC+00:00)

Cosmos 1455 Rocket - Pass Details

Date: 15 June 2024
Orbit: 602 x 625 km, 82.5° (Epoch: 16 July)

Event Time Altitude Azimuth Distance (km) Brightness Sun altitude
Rises 00:28:52 0° 340° (NNW) 2,918 7.2 -12.5°
Reaches altitude 10° 00:31:21 10° 329° (NNW) 2,008 6.1 -12.3°
Maximum altitude 00:35:05 27° 272° (W) 1,203 4.3 -12.1°
Enters shadow 00:37:39 16° 224° (SW) 1,626 4.6 -11.9°
